Tracking 19245 objects as of 17-Aug-2018
HD Live streaming from Space Station
objects crossing your sky now

FENGYUN 1C DEB

Track FENGYUN 1C DEB now!
10-day predictions


NORAD ID: 30516
Int'l Code: 1999-025AJE
Perigee: 824.8 km
Apogee: 846.8 km
Inclination: 99.0 °
Period: 101.5 minutes
Semi major axis: 7206 km
RCS: 0.0157 m2 (small)
Launch date: May 10, 1999
Source: People's Republic of China (PRC)
Launch site: Taiyaun Space Center, China (TSC)

Note: This is SATELLITE DEBRIS
aabbcc
Your satellite tracking list
Your tracking list is empty




NASA's NSSDC Master Catalog

Two Line Element Set (TLE):
1 30516U 99025AJE 18228.95997868 +.00000521 +00000-0 +27092-3 0  9993
2 30516 098.9838 258.3065 0015243 089.5190 027.3743 14.19030321596312
Source of the keplerian elements: AFSPC